This is the latest recevied weather packets stored in our database for station/object BM1CKC-10. If no packets are shown the sender has not sent any weather packets the latest 10 day(s).
| Time | Temp. | Humidity | Pressure | Rain* | Wind** | Luminosity | Snow |
|---|---|---|---|---|---|---|---|
| 1777776598 | 29.44° C | 59% | 1003.4 hPa | - | - | - | - |
| 1777775398 | 29.44° C | 59% | 1003.4 hPa | - | - | - | - |
| 1777774198 | 28.89° C | 60% | 1003.7 hPa | - | - | - | - |
| 1777772998 | 28.89° C | 59% | 1003.7 hPa | - | - | - | - |
| 1777771797 | 28.33° C | 60% | 1003.9 hPa | - | - | - | - |
| 1777770598 | 28.33° C | 61% | 1003.7 hPa | - | - | - | - |
| 1777769398 | 28.33° C | 61% | 1003.5 hPa | - | - | - | - |
| 1777768198 | 27.78° C | 61% | 1003.1 hPa | - | - | - | - |
| 1777766997 | 27.22° C | 61% | 1003.3 hPa | - | - | - | - |
| 1777765799 | 26.11° C | 59% | 1003.3 hPa | - | - | - | - |
| 1777764599 | 26.11° C | 58% | 1003.1 hPa | - | - | - | - |
| 1777763399 | 25.56° C | 61% | 1002.9 hPa | - | - | - | - |
| 1777762199 | 25.56° C | 59% | 1002.8 hPa | - | - | - | - |
| 1777761007 | 25.56° C | 58% | 1002.5 hPa | - | - | - | - |
| 1777759799 | 25.56° C | 59% | 1002.4 hPa | - | - | - | - |
| 1777758599 | 25.56° C | 60% | 1002.2 hPa | - | - | - | - |
| 1777757398 | 25.56° C | 60% | 1002.1 hPa | - | - | - | - |
| 1777756198 | 25° C | 57% | 1001.9 hPa | - | - | - | - |
| 1777754999 | 25.56° C | 59% | 1002.1 hPa | - | - | - | - |
| 1777753799 | 25.56° C | 59% | 1002.1 hPa | - | - | - | - |
| 1777752599 | 25.56° C | 59% | 1002 hPa | - | - | - | - |
| 1777751399 | 25.56° C | 59% | 1002 hPa | - | - | - | - |
| 1777750199 | 25.56° C | 59% | 1002.1 hPa | - | - | - | - |
| 1777748999 | 25° C | 59% | 1002.1 hPa | - | - | - | - |
| 1777747799 | 26.11° C | 58% | 1002.3 hPa | - | - | - | - |
* Rain since midnight (hover to see other rain measurements)
** Current wind speed in m/s (hover to see current wind gust speed)